TIANMU-1 06

Last updated on Sat Nov 01 2025 00:02:22 GMT+0000 (Coordinated Universal Time)

1 55976U 23039D 25304.70983634 .00017961 00000+0 45817-3 0 9994 2 55976 97.5099 106.3747 0003290 207.4841 152.6231 15.39569142145590
UTC large
Height (km)
Speed (km/s)
/
Latitude / Longitude
Inclination (degrees)
Orbital Period (minutes)
Azimuth
Elevation
Range (km)
Doppler Factor

Next 0 passes for location: London (51.5072 / 0.1276)

Sorry there are no passes over London.